Other Public Products
Issued by NWS Charleston, SC

Current Version | Previous Version | Graphics & Text | Print | Product List | Glossary On
Versions: 1 2 3 4 5 6 7 8 9 10 11 12 13 14 15 16 17 18 19 20 21 22 23 24 25 26 27 28 29 30 31 32 33 34 35 36 37 38 39 40 41 42 43 44 45 46 47 48 49 50
916
FPUS82 KCHS 280812
OPUCHS

TEST...KCHS/KSAV Gateway Observations...TEST
National Weather Service Charleston SC
400 AM EDT TUE MAR 28 2017

NOTE: "fair" indicates few or no clouds below 12,000 feet with no
significant weather and/or obstructions to visibility.

SCZ050-WAZ558-NCZ071-TXZ119-213-PAZ071-DCZ001-FLZ074-172-MI076-
NYZ176-178-MAZ016-IL014-TNZ027-NJZ106-GAZ044-MD014-280900-

...Gateway Observations for Charleston International...

CITY           SKY/WX    TMP DP  RH WIND       PRES   REMARKS
Chas Airport   PTCLDY    61  58  90 SW5       30.00F
Seattle        LGT RAIN  45  43  93 S9        30.27S
Charlotte      LGT RAIN  61  56  83 W8        29.96R
Dallas DFW     PTCLDY    63  56  78 E6        29.86S
Dallas Love    PTCLDY    63  55  75 E7        29.88R
Philladelphia  CLOUDY    51  50  96 NE7       29.91F FOG
Wash National  CLOUDY    62  57  83 S6        29.85F
Baltimore      PTCLDY    52  52 100 CALM      29.86F
Miami          PTCLDY    68  61  78 NW3       29.99F
Detroit        CLOUDY    50  46  86 NE10      29.90S
Newark         LGT RAIN  47  46  97 E5        29.95F FOG
Laguardia      FOG       43  41  93 NE6       29.96S VSB 1/4
J F K          CLOUDY    46  44  93 SE5       29.96F
Boston Logan   CLOUDY    36  35  96 N6        30.03S WCI  31
Ft. Lauderdale PTCLDY    67  60  78 NW5       29.99S
Chicago O`Hare CLOUDY    42  35  76 N10       29.99R
Chicago Midway CLOUDY    42  36  79 N13G21    29.99R
Houston Bush   CLOUDY    70  68  93 SE3       29.87F FOG
Houston Hobby  MOCLDY    72  70  93 S6        29.86F
Nashville      CLOUDY    58  57  97 W6        29.90S
Atlanta        CLOUDY    64  59  83 W6        29.96S

$$

GAZ044-118-TXZ119-213-NCZ071-DCZ001-MDZ014-506-PAZ021-071-NJZ106-
NYZ176-178-MAZ106-OHZ011-021-055-MIZ076-KYZ091-ILZ014-INZ047-
MNZ060-ONZ431-280900-

...Gateway Observations for Savannah International...

CITY           SKY/WX    TMP DP  RH WIND       PRES   REMARKS
Savannah Arpt  MOCLDY    66  60  81 SW8       30.01F
Atlanta        CLOUDY    64  59  83 W6        29.96S
Charlotte      LGT RAIN  61  56  83 W8        29.96R
Dallas DFW     PTCLDY    63  56  78 E6        29.86S
Houston Bush   CLOUDY    70  68  93 SE3       29.87F FOG
Wash National  CLOUDY    62  57  83 S6        29.85F
Wash Dulles    CLOUDY    58  56  93 CALM      29.85F
Baltimore      PTCLDY    52  52 100 CALM      29.86F
Philadelphia   CLOUDY    51  50  96 NE7       29.91F FOG
Newark         LGT RAIN  47  46  97 E5        29.95F FOG
Laguardia      FOG       43  41  93 NE6       29.96S VSB 1/4
J F K          CLOUDY    46  44  93 SE5       29.96F
Boston         CLOUDY    36  35  96 N6        30.03S WCI  31
Pittsburg      CLOUDY    58  51  78 NW5       29.83F
Akron          LGT RAIN  52  49  89 E8        29.84F FOG
Cleveland      LGT RAIN  53  47  79 N5        29.87F
Cincinnati     CLOUDY    55  54  96 SW3       29.83S
Columbus       CLOUDY    55  55 100 W3        29.83S
Detroit        CLOUDY    50  46  86 NE10      29.90S
Chicago O`Hare CLOUDY    42  35  76 N10       29.99R
Minneapolis    PTCLDY    38  34  85 CALM      30.06R
Indianapolis   CLOUDY    55  53  93 N10       29.85R
Toronto Canada CLOUDY    45  43  93 N12       29.89R

$$




USA.gov is the U.S. government's official web portal to all federal, state and local government web resources and services.